This demonstration page uses our WeatherBlox Daily Observations layout. Learn more.

Left ArrowRight Arrow

Hourly Observations for December 6, 2020

Temp ( °F °C ) Dew Point ( °F °C ) Humidity (%) Winds ( mph kmh ) Pressure ( in mb ) Visibility ( mi km ) Precip ( " mm )
12:51 am 00:51 Clear 32 0 8 -13.3 36 36 Calm 30.26 1025 10 16.0934 0 0
1:51 am 01:51 Clear 34 1.1 10 -12.2 37 37 SSE 5 7 30.25 1024 10 16.0934 0 0
2:51 am 02:51 Clear 31 -0.6 9 -12.8 40 40 ESE 5 7 30.25 1025 10 16.0934 0 0
3:51 am 03:51 Clear 31 -0.6 10 -12.2 42 42 SSE 5 7 30.25 1024 10 16.0934 0 0
4:51 am 04:51 Clear 29 -1.7 9 -12.8 43 43 SE 5 7 30.25 1024 10 16.0934 0 0
5:51 am 05:51 Clear 29 -1.7 9 -12.8 43 43 Calm 30.29 1026 10 16.0934 0 0
6:51 am 06:51 Clear 26 -3.3 8 -13.3 46 46 ESE 5 7 30.32 1027 10 16.0934 0 0
7:51 am 07:51 Sunny 30 -1.1 9 -12.8 41 41 Calm 30.32 1027 10 16.0934 0 0
8:51 am 08:51 Sunny 38 3.3 12 -11.1 34 34 E 7 11 30.32 1027 10 16.0934 0 0
9:51 am 09:51 Sunny 45 7.2 14 -10 29 29 SSE 3 6 30.32 1027 10 16.0934 0 0
10:51 am 10:51 Sunny 52 11.1 14 -10 22 22 S 6 9 30.3 1026 10 16.0934 0 0
11:51 am 11:51 Sunny 56 13.3 15 -9.4 20 20 VRB 3 6 30.25 1024 10 16.0934 0 0
12:51 pm 12:51 Sunny 59 15 15 -9.4 18 18 Calm 30.21 1023 10 16.0934 0 0
1:51 pm 13:51 Sunny 62 16.7 14 -10 15 15 Calm 30.16 1022 10 16.0934 0 0
2:51 pm 14:51 Sunny 63 17.2 14 -10 15 15 Calm 30.14 1021 10 16.0934 0 0
3:51 pm 15:51 Sunny 65 18.3 14 -10 14 14 WNW 6 9 30.14 1021 10 16.0934 0 0
4:51 pm 16:51 Sunny 63 17.2 14 -10 15 15 W 3 6 30.15 1021 10 16.0934 0 0
5:51 pm 17:51 Clear 53 11.7 13 -10.6 20 20 NNW 5 7 30.16 1022 10 16.0934 0 0
6:51 pm 18:51 Clear 49 9.4 11 -11.7 21 21 NNE 6 9 30.19 1022 10 16.0934 0 0
7:51 pm 19:51 Clear 45 7.2 11 -11.7 25 25 ESE 3 6 30.19 1023 10 16.0934 0 0
8:51 pm 20:51 Clear 46 7.8 12 -11.1 25 25 SE 5 7 30.18 1022 10 16.0934 0 0
9:51 pm 21:51 Clear 40 4.4 10 -12.2 29 29 Calm 30.19 1022 10 16.0934 0 0
10:51 pm 22:51 Clear 39 3.9 10 -12.2 30 30 ESE 8 13 30.17 1022 10 16.0934 0 0
11:51 pm 23:51 Clear 41 5 10 -12.2 28 28 SSE 9 15 30.16 1021 10 16.0934 0 0

Powered by AerisWeather